Time,TemperatureF,DewpointF,PressureIn,WindDirection,WindDirectionDegrees,WindSpeedMPH,WindSpeedGustMPH,Humidity,HourlyPrecipIn,Conditions,Clouds,dailyrainin,SoftwareType,DateUTC
2013-01-08 09:46:00,-4.6,-10.8,29.87,ESE,122,0.0,0.0,74,0.00,,,0.00,Wunderground v.1.13,2013-01-08 18:46:00,
2013-01-08 09:51:00,-4.8,-11.0,29.88,ESE,122,0.0,0.0,74,0.00,,,0.00,Wunderground v.1.13,2013-01-08 18:51:00,
2013-01-08 09:56:00,-4.8,-10.7,29.88,ESE,122,0.0,0.0,75,0.00,,,0.00,Wunderground v.1.13,2013-01-08 18:56:00,
2013-01-08 10:01:00,-4.3,-10.0,29.88,ESE,122,0.0,0.0,76,0.00,,,0.00,Wunderground v.1.13,2013-01-08 19:01:00,
2013-01-08 10:07:00,-3.9,-9.6,29.88,ESE,122,0.0,0.0,76,0.00,,,0.00,Wunderground v.1.13,2013-01-08 19:07:00,
2013-01-08 10:12:00,-3.7,-9.4,29.88,ESE,122,0.0,0.0,76,0.00,,,0.00,Wunderground v.1.13,2013-01-08 19:12:00,
2013-01-08 10:17:00,-3.5,-9.2,29.88,ESE,122,0.0,0.0,76,0.00,,,0.00,Wunderground v.1.13,2013-01-08 19:17:00,
2013-01-08 10:22:00,-3.1,-8.8,29.89,ESE,122,0.0,0.0,76,0.00,,,0.00,Wunderground v.1.13,2013-01-08 19:22:00,
2013-01-08 10:27:00,-3.1,-8.8,29.89,ESE,122,0.0,0.0,76,0.00,,,0.00,Wunderground v.1.13,2013-01-08 19:27:00,
2013-01-08 10:32:00,-2.8,-8.2,29.89,ESE,122,0.0,0.0,77,0.00,,,0.00,Wunderground v.1.13,2013-01-08 19:32:00,
2013-01-08 10:37:00,-2.6,-8.3,29.90,ESE,122,0.0,0.0,76,0.00,,,0.00,Wunderground v.1.13,2013-01-08 19:37:00,
2013-01-08 10:42:00,-2.6,-8.3,29.90,ESE,122,0.0,0.0,76,0.00,,,0.00,Wunderground v.1.13,2013-01-08 19:42:00,
2013-01-08 10:47:00,-3.3,-9.2,29.90,ESE,122,0.0,0.0,75,0.00,,,0.00,Wunderground v.1.13,2013-01-08 19:47:00,
2013-01-08 10:52:00,-3.7,-9.6,29.91,ESE,122,0.0,0.0,75,0.00,,,0.00,Wunderground v.1.13,2013-01-08 19:52:00,
2013-01-08 10:57:00,-3.7,-9.6,29.91,ESE,122,0.0,0.0,75,0.00,,,0.00,Wunderground v.1.13,2013-01-08 19:57:00,
2013-01-08 11:02:00,-3.9,-9.8,29.91,ESE,122,0.0,0.0,75,0.00,,,0.00,Wunderground v.1.13,2013-01-08 20:02:00,
2013-01-08 11:07:00,-3.7,-9.4,29.91,ESE,122,0.0,0.0,76,0.00,,,0.00,Wunderground v.1.13,2013-01-08 20:07:00,
2013-01-08 11:12:00,-3.1,-8.5,29.91,ESE,122,0.0,0.0,77,0.00,,,0.00,Wunderground v.1.13,2013-01-08 20:12:00,
2013-01-08 11:18:00,-2.8,-8.5,29.93,ESE,122,0.0,0.0,76,0.00,,,0.00,Wunderground v.1.13,2013-01-08 20:18:00,
2013-01-08 11:23:00,-2.6,-8.3,29.93,ESE,122,0.0,0.0,76,0.00,,,0.00,Wunderground v.1.13,2013-01-08 20:23:00,
2013-01-08 11:28:00,-2.4,-7.8,29.93,ESE,122,0.0,0.0,77,0.00,,,0.00,Wunderground v.1.13,2013-01-08 20:28:00,
2013-01-08 11:33:00,-2.2,-7.6,29.94,ESE,122,0.0,0.0,77,0.00,,,0.00,Wunderground v.1.13,2013-01-08 20:33:00,
2013-01-08 11:38:00,-2.2,-7.9,29.94,ESE,122,0.0,0.0,76,0.00,,,0.00,Wunderground v.1.13,2013-01-08 20:38:00,
2013-01-08 11:43:00,-2.2,-7.9,29.94,ESE,122,0.0,0.0,76,0.00,,,0.00,Wunderground v.1.13,2013-01-08 20:43:00,
2013-01-08 11:48:00,-2.4,-8.4,29.94,ESE,122,0.0,0.0,75,0.00,,,0.00,Wunderground v.1.13,2013-01-08 20:48:00,
2013-01-08 11:53:00,-2.4,-8.4,29.94,ESE,122,0.0,0.0,75,0.00,,,0.00,Wunderground v.1.13,2013-01-08 20:53:00,
2013-01-08 11:58:00,-2.4,-8.1,29.94,ESE,122,0.0,0.0,76,0.00,,,0.00,Wunderground v.1.13,2013-01-08 20:58:00,
2013-01-08 12:03:00,-2.4,-8.1,29.95,ESE,122,0.0,0.0,76,0.00,,,0.00,Wunderground v.1.13,2013-01-08 21:03:00,
2013-01-08 12:08:00,-2.2,-7.9,29.95,ESE,122,0.0,0.0,76,0.00,,,0.00,Wunderground v.1.13,2013-01-08 21:08:00,
2013-01-08 12:13:00,-2.0,-7.7,29.95,ESE,122,0.0,0.0,76,0.00,,,0.00,Wunderground v.1.13,2013-01-08 21:13:00,
2013-01-08 12:18:00,-1.8,-7.3,29.95,ESE,122,0.0,0.0,77,0.00,,,0.00,Wunderground v.1.13,2013-01-08 21:18:00,
2013-01-08 12:23:00,-1.6,-7.1,29.95,ESE,122,0.0,0.0,77,0.00,,,0.00,Wunderground v.1.13,2013-01-08 21:23:00,
2013-01-08 12:28:00,-1.4,-6.9,29.95,ESE,122,0.0,0.0,77,0.00,,,0.00,Wunderground v.1.13,2013-01-08 21:28:00,
2013-01-08 12:33:00,-1.4,-6.9,29.96,ESE,122,0.0,0.0,77,0.00,,,0.00,Wunderground v.1.13,2013-01-08 21:33:00,
2013-01-08 12:38:00,-1.2,-6.7,29.96,ESE,122,0.0,0.0,77,0.00,,,0.00,Wunderground v.1.13,2013-01-08 21:38:00,
2013-01-08 12:43:00,-1.2,-6.7,29.96,ESE,122,0.0,0.0,77,0.00,,,0.00,Wunderground v.1.13,2013-01-08 21:43:00,
2013-01-08 12:48:00,-1.2,-6.7,29.97,ESE,122,0.0,0.0,77,0.00,,,0.00,Wunderground v.1.13,2013-01-08 21:48:00,
2013-01-08 12:53:00,-1.0,-6.5,29.97,ESE,111,0.0,0.0,77,0.00,,,0.00,Wunderground v.1.13,2013-01-08 21:53:00,
2013-01-08 12:58:00,-1.0,-6.5,29.97,ESE,111,0.0,0.0,77,0.00,,,0.00,Wunderground v.1.13,2013-01-08 21:58:00,
2013-01-08 13:03:00,-1.0,-6.7,29.97,ESE,111,0.0,0.0,76,0.00,,,0.00,Wunderground v.1.13,2013-01-08 22:03:00,
2013-01-08 13:08:00,-1.2,-6.9,29.97,ESE,111,0.0,1.0,76,0.00,,,0.00,Wunderground v.1.13,2013-01-08 22:08:00,
2013-01-08 13:13:00,-1.4,-7.1,29.97,ESE,120,0.0,1.0,76,0.00,,,0.00,Wunderground v.1.13,2013-01-08 22:13:00,
2013-01-08 13:18:00,-1.6,-7.3,29.98,ESE,120,0.0,0.0,76,0.00,,,0.00,Wunderground v.1.13,2013-01-08 22:18:00,
2013-01-08 13:23:00,-1.8,-7.5,29.98,ESE,121,0.0,1.0,76,0.00,,,0.00,Wunderground v.1.13,2013-01-08 22:23:00,
2013-01-08 13:28:00,-2.0,-7.7,29.98,ESE,121,0.0,0.0,76,0.00,,,0.00,Wunderground v.1.13,2013-01-08 22:28:00,
2013-01-08 13:33:00,-2.2,-7.9,29.99,ESE,121,1.0,1.0,76,0.00,,,0.00,Wunderground v.1.13,2013-01-08 22:33:00,
2013-01-08 13:39:00,-2.6,-8.6,29.99,SE,134,0.0,1.0,75,0.00,,,0.00,Wunderground v.1.13,2013-01-08 22:39:00,
2013-01-08 13:44:00,-2.8,-8.8,29.99,SE,134,0.0,1.0,75,0.00,,,0.00,Wunderground v.1.13,2013-01-08 22:44:00,
2013-01-08 13:49:00,-3.1,-9.1,29.99,SE,134,0.0,0.0,75,0.00,,,0.00,Wunderground v.1.13,2013-01-08 22:49:00,
2013-01-08 13:54:00,-2.8,-8.5,29.99,SE,134,0.0,0.0,76,0.00,,,0.00,Wunderground v.1.13,2013-01-08 22:54:00,
2013-01-08 13:59:00,-2.8,-8.5,29.99,SE,134,0.0,0.0,76,0.00,,,0.00,Wunderground v.1.13,2013-01-08 22:59:00,
2013-01-08 14:04:00,-2.6,-8.3,30.00,SE,134,0.0,0.0,76,0.00,,,0.00,Wunderground v.1.13,2013-01-08 23:04:00,
2013-01-08 14:09:00,-2.4,-8.1,30.00,SE,134,0.0,0.0,76,0.00,,,0.00,Wunderground v.1.13,2013-01-08 23:09:00,
2013-01-08 14:14:00,-2.2,-7.9,30.00,SE,134,0.0,0.0,76,0.00,,,0.00,Wunderground v.1.13,2013-01-08 23:14:00,
2013-01-08 14:19:00,-2.0,-7.7,30.00,SE,134,0.0,1.0,76,0.00,,,0.00,Wunderground v.1.13,2013-01-08 23:19:00,
2013-01-08 14:24:00,-1.8,-7.3,30.00,SE,134,0.0,0.0,77,0.00,,,0.00,Wunderground v.1.13,2013-01-08 23:24:00,
2013-01-08 14:29:00,-1.6,-7.1,30.00,SE,134,0.0,0.0,77,0.00,,,0.00,Wunderground v.1.13,2013-01-08 23:29:00,
2013-01-08 14:34:00,-1.6,-7.3,30.01,SE,134,0.0,0.0,76,0.00,,,0.00,Wunderground v.1.13,2013-01-08 23:34:00,
2013-01-08 14:39:00,-1.4,-6.9,30.01,SE,134,0.0,0.0,77,0.00,,,0.00,Wunderground v.1.13,2013-01-08 23:39:00,
2013-01-08 14:44:00,-1.4,-6.9,30.01,SE,134,0.0,0.0,77,0.00,,,0.00,Wunderground v.1.13,2013-01-08 23:44:00,
2013-01-08 14:50:00,-1.2,-6.7,30.01,SE,134,0.0,0.0,77,0.00,,,0.00,Wunderground v.1.13,2013-01-08 23:50:00,
2013-01-08 14:55:00,-1.0,-6.5,30.01,SE,134,0.0,0.0,77,0.00,,,0.00,Wunderground v.1.13,2013-01-08 23:55:00,
2013-01-08 15:00:00,-1.0,-6.5,30.01,SE,134,0.0,0.0,77,0.00,,,0.00,Wunderground v.1.13,2013-01-09 00:00:00,
2013-01-08 15:05:00,-1.2,-6.9,30.02,SE,134,0.0,0.0,76,0.00,,,0.00,Wunderground v.1.13,2013-01-09 00:05:00,
2013-01-08 15:10:00,-1.4,-7.1,30.02,SE,134,0.0,0.0,76,0.00,,,0.00,Wunderground v.1.13,2013-01-09 00:10:00,
2013-01-08 15:15:00,-1.6,-7.3,30.02,SE,134,0.0,0.0,76,0.00,,,0.00,Wunderground v.1.13,2013-01-09 00:15:00,
2013-01-08 15:20:00,-1.6,-7.3,30.02,SE,134,0.0,0.0,76,0.00,,,0.00,Wunderground v.1.13,2013-01-09 00:20:00,
2013-01-08 15:25:00,-1.8,-7.5,30.02,SE,134,0.0,0.0,76,0.00,,,0.00,Wunderground v.1.13,2013-01-09 00:25:00,
2013-01-08 15:30:00,-1.6,-7.3,30.02,SE,134,0.0,0.0,76,0.00,,,0.00,Wunderground v.1.13,2013-01-09 00:30:00,
2013-01-08 15:35:00,-1.6,-7.3,30.03,SE,134,0.0,0.0,76,0.00,,,0.00,Wunderground v.1.13,2013-01-09 00:35:00,
2013-01-08 15:40:00,-1.6,-7.3,30.03,SE,134,0.0,0.0,76,0.00,,,0.00,Wunderground v.1.13,2013-01-09 00:40:00,
2013-01-08 15:45:00,-1.6,-7.3,30.03,SE,134,0.0,0.0,76,0.00,,,0.00,Wunderground v.1.13,2013-01-09 00:45:00,
2013-01-08 15:50:00,-1.8,-7.5,30.03,SE,134,0.0,0.0,76,0.00,,,0.00,Wunderground v.1.13,2013-01-09 00:50:00,
2013-01-08 15:55:00,-1.8,-7.5,30.03,SE,134,0.0,0.0,76,0.00,,,0.00,Wunderground v.1.13,2013-01-09 00:55:00,
2013-01-08 16:00:00,-2.0,-7.7,30.03,SE,134,0.0,0.0,76,0.00,,,0.00,Wunderground v.1.13,2013-01-09 01:00:00,
2013-01-08 16:07:00,-2.4,-8.4,30.04,SE,134,0.0,0.0,75,0.00,,,0.00,Wunderground v.1.13,2013-01-09 01:07:00,
2013-01-08 16:12:00,-2.4,-8.4,30.04,SE,134,0.0,0.0,75,0.00,,,0.00,Wunderground v.1.13,2013-01-09 01:12:00,
2013-01-08 16:17:00,-2.6,-8.6,30.04,SE,134,0.0,0.0,75,0.00,,,0.00,Wunderground v.1.13,2013-01-09 01:17:00,
2013-01-08 16:22:00,-2.6,-8.3,30.04,SE,134,0.0,0.0,76,0.00,,,0.00,Wunderground v.1.13,2013-01-09 01:22:00,
2013-01-08 16:27:00,-2.6,-8.6,30.04,SE,134,0.0,0.0,75,0.00,,,0.00,Wunderground v.1.13,2013-01-09 01:27:00,
2013-01-08 16:32:00,-2.8,-8.8,30.04,SE,134,0.0,0.0,75,0.00,,,0.00,Wunderground v.1.13,2013-01-09 01:32:00,
2013-01-08 16:37:00,-2.8,-8.8,30.05,SE,134,0.0,0.0,75,0.00,,,0.00,Wunderground v.1.13,2013-01-09 01:37:00,
2013-01-08 16:42:00,-3.1,-9.1,30.05,SE,134,0.0,0.0,75,0.00,,,0.00,Wunderground v.1.13,2013-01-09 01:42:00,
2013-01-08 16:48:00,-3.1,-9.1,30.06,SE,134,0.0,0.0,75,0.00,,,0.00,Wunderground v.1.13,2013-01-09 01:48:00,
2013-01-08 16:52:00,-3.1,-9.1,30.06,SE,134,0.0,0.0,75,0.00,,,0.00,Wunderground v.1.13,2013-01-09 01:52:00,
2013-01-08 16:58:00,-3.1,-9.1,30.06,SE,134,0.0,0.0,75,0.00,,,0.00,Wunderground v.1.13,2013-01-09 01:58:00,
2013-01-08 17:03:00,-3.3,-9.2,30.06,SE,134,0.0,0.0,75,0.00,,,0.00,Wunderground v.1.13,2013-01-09 02:03:00,
2013-01-08 17:08:00,-3.1,-9.1,30.06,SE,134,0.0,0.0,75,0.00,,,0.00,Wunderground v.1.13,2013-01-09 02:08:00,
2013-01-08 17:13:00,-3.1,-8.8,30.06,SE,134,1.0,1.0,76,0.00,,,0.00,Wunderground v.1.13,2013-01-09 02:13:00,
2013-01-08 17:18:00,-3.1,-9.1,30.06,SE,134,0.0,0.0,75,0.00,,,0.00,Wunderground v.1.13,2013-01-09 02:18:00,
2013-01-08 17:23:00,-3.1,-9.1,30.06,SE,134,0.0,0.0,75,0.00,,,0.00,Wunderground v.1.13,2013-01-09 02:23:00,
2013-01-08 17:28:00,-3.3,-9.2,30.06,SE,134,0.0,0.0,75,0.00,,,0.00,Wunderground v.1.13,2013-01-09 02:28:00,
2013-01-08 17:33:00,-3.3,-9.2,30.07,SE,134,0.0,0.0,75,0.00,,,0.00,Wunderground v.1.13,2013-01-09 02:33:00,
2013-01-08 17:38:00,-3.5,-9.4,30.07,SE,134,0.0,0.0,75,0.00,,,0.00,Wunderground v.1.13,2013-01-09 02:38:00,
2013-01-08 17:43:00,-3.5,-9.4,30.07,SE,134,0.0,0.0,75,0.00,,,0.00,Wunderground v.1.13,2013-01-09 02:43:00,
2013-01-08 17:48:00,-3.5,-9.4,30.08,SE,134,0.0,0.0,75,0.00,,,0.00,Wunderground v.1.13,2013-01-09 02:48:00,
2013-01-08 17:53:00,-3.3,-9.0,30.08,SE,134,0.0,0.0,76,0.00,,,0.00,Wunderground v.1.13,2013-01-09 02:53:00,
2013-01-08 17:58:00,-3.3,-9.0,30.08,SE,134,0.0,0.0,76,0.00,,,0.00,Wunderground v.1.13,2013-01-09 02:58:00,
2013-01-08 18:03:00,-3.1,-8.8,30.08,SE,134,0.0,0.0,76,0.00,,,0.00,Wunderground v.1.13,2013-01-09 03:03:00,
2013-01-08 18:08:00,-3.1,-8.8,30.08,SE,134,0.0,0.0,76,0.00,,,0.00,Wunderground v.1.13,2013-01-09 03:08:00,
2013-01-08 18:13:00,-2.8,-8.5,30.08,SE,134,0.0,0.0,76,0.00,,,0.00,Wunderground v.1.13,2013-01-09 03:13:00,
2013-01-08 18:18:00,-2.6,-8.3,30.09,SE,134,0.0,0.0,76,0.00,,,0.00,Wunderground v.1.13,2013-01-09 03:18:00,
2013-01-08 18:23:00,-2.4,-8.1,30.09,SE,134,0.0,0.0,76,0.00,,,0.00,Wunderground v.1.13,2013-01-09 03:23:00,
2013-01-08 18:28:00,-2.2,-7.9,30.09,SE,134,0.0,0.0,76,0.00,,,0.00,Wunderground v.1.13,2013-01-09 03:28:00,
2013-01-08 18:33:00,-2.2,-7.9,30.09,SE,134,0.0,0.0,76,0.00,,,0.00,Wunderground v.1.13,2013-01-09 03:33:00,
2013-01-08 18:38:00,-2.2,-7.9,30.09,SE,134,0.0,0.0,76,0.00,,,0.00,Wunderground v.1.13,2013-01-09 03:38:00,
2013-01-08 18:43:00,-2.2,-7.9,30.09,SE,134,0.0,0.0,76,0.00,,,0.00,Wunderground v.1.13,2013-01-09 03:43:00,
2013-01-08 18:48:00,-2.2,-7.9,30.09,SE,134,0.0,0.0,76,0.00,,,0.00,Wunderground v.1.13,2013-01-09 03:48:00,
2013-01-08 18:53:00,-2.2,-7.9,30.09,SE,134,0.0,0.0,76,0.00,,,0.00,Wunderground v.1.13,2013-01-09 03:53:00,
2013-01-08 18:58:00,-2.2,-7.9,30.09,SE,134,0.0,0.0,76,0.00,,,0.00,Wunderground v.1.13,2013-01-09 03:58:00,
2013-01-08 19:03:00,-2.2,-7.9,30.09,SE,134,0.0,0.0,76,0.00,,,0.00,Wunderground v.1.13,2013-01-09 04:03:00,
2013-01-08 19:08:00,-2.0,-7.4,30.09,SE,134,0.0,0.0,77,0.00,,,0.00,Wunderground v.1.13,2013-01-09 04:08:00,
2013-01-08 19:14:00,-1.8,-7.3,30.09,SE,134,0.0,0.0,77,0.00,,,0.00,Wunderground v.1.13,2013-01-09 04:14:00,
2013-01-08 19:19:00,-1.6,-7.3,30.10,SE,134,0.0,1.0,76,0.00,,,0.00,Wunderground v.1.13,2013-01-09 04:19:00,
2013-01-08 19:24:00,-1.6,-7.3,30.10,SE,134,0.0,0.0,76,0.00,,,0.00,Wunderground v.1.13,2013-01-09 04:24:00,
2013-01-08 19:29:00,-1.4,-6.9,30.10,SE,134,0.0,0.0,77,0.00,,,0.00,Wunderground v.1.13,2013-01-09 04:29:00,
2013-01-08 19:34:00,-0.8,-6.0,30.10,SE,134,0.0,0.0,78,0.00,,,0.00,Wunderground v.1.13,2013-01-09 04:34:00,
2013-01-08 19:39:00,-0.2,-5.4,30.10,SE,134,0.0,0.0,78,0.00,,,0.00,Wunderground v.1.13,2013-01-09 04:39:00,
2013-01-08 19:44:00,0.0,-5.2,30.10,SE,134,0.0,0.0,78,0.00,,,0.00,Wunderground v.1.13,2013-01-09 04:44:00,
2013-01-08 19:49:00,0.0,-5.2,30.11,SE,134,0.0,0.0,78,0.00,,,0.00,Wunderground v.1.13,2013-01-09 04:49:00,
2013-01-08 19:54:00,0.0,-5.5,30.11,SE,134,0.0,0.0,77,0.00,,,0.00,Wunderground v.1.13,2013-01-09 04:54:00,
2013-01-08 19:59:00,-0.4,-6.2,30.11,SE,134,0.0,0.0,76,0.00,,,0.00,Wunderground v.1.13,2013-01-09 04:59:00,
2013-01-08 20:00:00,-0.4,-6.4,30.11,SE,134,0.0,0.0,75,0.00,,,0.00,Wunderground v.1.13,2013-01-09 05:00:00,
2013-01-08 20:02:00,-0.6,-6.6,30.11,SE,134,0.0,0.0,75,0.00,,,0.00,Wunderground v.1.13,2013-01-09 05:02:00,
2013-01-08 20:08:00,-1.2,-6.9,30.12,SE,134,0.0,0.0,76,0.00,,,0.00,Wunderground v.1.13,2013-01-09 05:08:00,
2013-01-08 20:13:00,-1.4,-7.1,30.12,SE,134,0.0,0.0,76,0.00,,,0.00,Wunderground v.1.13,2013-01-09 05:13:00,
2013-01-08 20:18:00,-1.4,-7.1,30.12,SE,134,0.0,0.0,76,0.00,,,0.00,Wunderground v.1.13,2013-01-09 05:18:00,
2013-01-08 20:23:00,-1.2,-6.7,30.12,SE,134,0.0,0.0,77,0.00,,,0.00,Wunderground v.1.13,2013-01-09 05:23:00,
2013-01-08 20:28:00,-1.0,-6.2,30.12,SE,134,0.0,0.0,78,0.00,,,0.00,Wunderground v.1.13,2013-01-09 05:28:00,
2013-01-08 20:33:00,-0.6,-5.8,30.12,SE,134,0.0,0.0,78,0.00,,,0.00,Wunderground v.1.13,2013-01-09 05:33:00,
2013-01-08 20:38:00,-0.4,-5.9,30.12,SE,134,0.0,0.0,77,0.00,,,0.00,Wunderground v.1.13,2013-01-09 05:38:00,
2013-01-08 20:43:00,-0.4,-5.9,30.12,SE,134,0.0,0.0,77,0.00,,,0.00,Wunderground v.1.13,2013-01-09 05:43:00,
2013-01-08 20:48:00,-0.4,-5.9,30.12,SE,134,0.0,0.0,77,0.00,,,0.00,Wunderground v.1.13,2013-01-09 05:48:00,
2013-01-08 20:53:00,-0.4,-5.9,30.12,SE,134,0.0,0.0,77,0.00,,,0.00,Wunderground v.1.13,2013-01-09 05:53:00,
2013-01-08 20:58:00,-0.4,-5.9,30.12,SE,134,0.0,0.0,77,0.00,,,0.00,Wunderground v.1.13,2013-01-09 05:58:00,
2013-01-08 21:03:00,-0.2,-5.4,30.13,SE,134,0.0,0.0,78,0.00,,,0.00,Wunderground v.1.13,2013-01-09 06:03:00,
2013-01-08 21:08:00,-0.2,-5.7,30.13,SE,134,0.0,0.0,77,0.00,,,0.00,Wunderground v.1.13,2013-01-09 06:08:00,
2013-01-08 21:13:00,-0.4,-5.9,30.13,SE,134,0.0,0.0,77,0.00,,,0.00,Wunderground v.1.13,2013-01-09 06:13:00,
2013-01-08 21:18:00,-0.4,-5.9,30.14,SE,134,0.0,0.0,77,0.00,,,0.00,Wunderground v.1.13,2013-01-09 06:18:00,
2013-01-08 21:23:00,-0.2,-5.7,30.14,SE,134,0.0,0.0,77,0.00,,,0.00,Wunderground v.1.13,2013-01-09 06:23:00,
2013-01-08 21:28:00,-0.4,-5.9,30.14,SE,134,0.0,0.0,77,0.00,,,0.00,Wunderground v.1.13,2013-01-09 06:28:00,
2013-01-08 21:33:00,-0.4,-5.9,30.14,SE,134,0.0,0.0,77,0.00,,,0.00,Wunderground v.1.13,2013-01-09 06:33:00,
2013-01-08 21:39:00,-0.4,-5.9,30.14,SE,134,0.0,0.0,77,0.00,,,0.00,Wunderground v.1.13,2013-01-09 06:39:00,
2013-01-08 21:44:00,-0.2,-5.4,30.14,SE,134,0.0,0.0,78,0.00,,,0.00,Wunderground v.1.13,2013-01-09 06:44:00,
2013-01-08 21:49:00,0.0,-5.2,30.15,SE,134,0.0,0.0,78,0.00,,,0.00,Wunderground v.1.13,2013-01-09 06:49:00,
2013-01-08 21:54:00,0.1,-5.1,30.15,SE,134,0.0,0.0,78,0.00,,,0.00,Wunderground v.1.13,2013-01-09 06:54:00,
2013-01-08 21:59:00,0.3,-4.9,30.15,SE,134,0.0,0.0,78,0.00,,,0.00,Wunderground v.1.13,2013-01-09 06:59:00,
2013-01-08 22:04:00,0.5,-4.7,30.15,SE,134,0.0,0.0,78,0.00,,,0.00,Wunderground v.1.13,2013-01-09 07:04:00,
2013-01-08 22:09:00,0.5,-4.7,30.15,SE,134,0.0,0.0,78,0.00,,,0.00,Wunderground v.1.13,2013-01-09 07:09:00,
2013-01-08 22:14:00,0.5,-5.0,30.15,SE,134,0.0,0.0,77,0.00,,,0.00,Wunderground v.1.13,2013-01-09 07:14:00,
2013-01-08 22:19:00,0.1,-5.4,30.15,SE,134,0.0,0.0,77,0.00,,,0.00,Wunderground v.1.13,2013-01-09 07:19:00,
2013-01-08 22:24:00,0.0,-5.5,30.15,SE,134,0.0,0.0,77,0.00,,,0.00,Wunderground v.1.13,2013-01-09 07:24:00,
2013-01-08 22:29:00,0.0,-5.5,30.15,SE,134,0.0,0.0,77,0.00,,,0.00,Wunderground v.1.13,2013-01-09 07:29:00,
2013-01-08 22:34:00,-0.2,-5.7,30.16,SE,134,0.0,0.0,77,0.00,,,0.00,Wunderground v.1.13,2013-01-09 07:34:00,
2013-01-08 22:40:00,-0.2,-5.7,30.16,SE,134,0.0,0.0,77,0.00,,,0.00,Wunderground v.1.13,2013-01-09 07:40:00,
2013-01-08 22:45:00,-0.4,-5.9,30.16,SE,134,0.0,0.0,77,0.00,,,0.00,Wunderground v.1.13,2013-01-09 07:45:00,
2013-01-08 22:50:00,-0.4,-5.9,30.16,SE,134,0.0,0.0,77,0.00,,,0.00,Wunderground v.1.13,2013-01-09 07:50:00,
2013-01-08 22:55:00,-0.2,-5.7,30.16,SE,134,0.0,0.0,77,0.00,,,0.00,Wunderground v.1.13,2013-01-09 07:55:00,